Location: Unspecified
(48.5670°N, 0.0000°E)
Time: 09:27:47
(UTC+00:00)

Vanguard 2 Rocket - Pass Details

Date: 30 August 2019
Orbit: 554 x 3327 km, 32.9° (Epoch: 17 September)

Event Time Altitude Azimuth Distance (km) Brightness Sun altitude
Rises 07:04:52 0° 269° (W) 5,957 10.4 17.4°
Reaches altitude 10° 07:09:37 10° 257° (WSW) 5,345 10.3 18.1°
Maximum altitude 07:21:15 23° 213° (SSW) 4,960 10.5 20.1°
Drops below altitude 10° 07:34:54 10° 170° (S) 6,275 11.5 22.3°
Sets 07:41:20 0° 158° (SSE) 7,203 12.0 23.3°
